When you browse on this site, cookies collect data to enhance your experience and personalize the content and advertising you see.
Visit our Privacy Policy to learn more. By continuing to use the site, you agree to this use of cookies and data.
  • In Portugal
  • List of Countries
  • For 7 days
  • Water Temperature
  • Satellite Maps
  • Weather Map
  • Weather Widgets
  • user-avatar
    Login

    Hourly Weather Córdoba

    Today, 16 December, Sunday

    Time Temperature Precipitation Wind Pressure Humidity
    00:00 +20°C° 0 mm 2 mps 724 mmHg 56%
    01:00 +21°C° 0 mm 1 mps 723 mmHg 58%
    02:00 +21°C° 0 mm 1 mps 723 mmHg 61%
    03:00 +21°C° 0 mm 1 mps 723 mmHg 63%
    04:00 +21°C° 0 mm 1 mps 723 mmHg 66%
    05:00 +21°C° 0 mm 1 mps 723 mmHg 69%
    06:00 +23°C° 0 mm 2 mps 723 mmHg 67%
    07:00 +25°C° 0 mm 2 mps 723 mmHg 66%
    08:00 +26°C° 0 mm 4 mps 723 mmHg 71%
    09:00 +27°C° 0.5 mm 4 mps 723 mmHg 69%
    10:00 +29°C° 0.5 mm 5 mps 723 mmHg 67%
    11:00 +30°C° 0.5 mm 5 mps 723 mmHg 65%
    12:00 +32°C° 0.2 mm 5 mps 722 mmHg 61%
    13:00 +33°C° 0.2 mm 5 mps 722 mmHg 58%
    14:00 +34°C° 0.2 mm 5 mps 721 mmHg 55%
    15:00 +34°C° 0.1 mm 5 mps 721 mmHg 56%
    16:00 +34°C° 0.1 mm 5 mps 720 mmHg 57%
    17:00 +34°C° 0.1 mm 5 mps 720 mmHg 57%
    18:00 +32°C° 0.2 mm 4 mps 720 mmHg 65%
    19:00 +29°C° 0.2 mm 4 mps 720 mmHg 73%
    20:00 +27°C° 0.2 mm 3 mps 720 mmHg 80%
    21:00 +27°C° 0.1 mm 3 mps 720 mmHg 82%
    22:00 +27°C° 0.1 mm 3 mps 720 mmHg 84%
    23:00 +26°C° 0.1 mm 3 mps 721 mmHg 86%

    Tomorrow, 17 December, Monday

    Time Temperature Precipitation Wind Pressure Humidity
    00:00 +26°C° 0 mm 2 mps 720 mmHg 85%
    01:00 +26°C° 0 mm 2 mps 720 mmHg 85%
    02:00 +25°C° 0 mm 2 mps 719 mmHg 84%
    03:00 +25°C° 0 mm 2 mps 719 mmHg 85%
    04:00 +25°C° 0 mm 2 mps 719 mmHg 85%
    05:00 +25°C° 0 mm 2 mps 719 mmHg 85%
    06:00 +27°C° 0 mm 1 mps 719 mmHg 77%
    07:00 +29°C° 0 mm 1 mps 720 mmHg 68%
    08:00 +31°C° 0 mm 1 mps 720 mmHg 60%
    09:00 +32°C° 0.3 mm 2 mps 720 mmHg 55%
    10:00 +34°C° 0.3 mm 3 mps 721 mmHg 51%
    11:00 +35°C° 0.3 mm 4 mps 721 mmHg 47%
    12:00 +35°C° 0.5 mm 4 mps 721 mmHg 50%
    13:00 +34°C° 0.5 mm 5 mps 720 mmHg 54%
    14:00 +34°C° 0.5 mm 5 mps 720 mmHg 57%
    15:00 +33°C° 0.7 mm 5 mps 720 mmHg 60%
    16:00 +32°C° 0.7 mm 4 mps 720 mmHg 62%
    17:00 +32°C° 0.7 mm 4 mps 720 mmHg 65%
    18:00 +29°C° 0.3 mm 4 mps 720 mmHg 70%
    19:00 +28°C° 0.3 mm 4 mps 720 mmHg 75%
    20:00 +27°C° 0.3 mm 4 mps 720 mmHg 80%
    21:00 +26°C° 2.1 mm 5 mps 721 mmHg 83%
    22:00 +25°C° 2.1 mm 5 mps 721 mmHg 87%
    23:00 +23°C° 2.1 mm 5 mps 722 mmHg 90%

    Day after tomorrow, 18 December, Tuesday

    Time Temperature Precipitation Wind Pressure Humidity
    00:00 +23°C° 0.9 mm 5 mps 722 mmHg 91%
    01:00 +22°C° 0.9 mm 5 mps 722 mmHg 91%
    02:00 +22°C° 0.9 mm 5 mps 722 mmHg 92%
    03:00 +22°C° 0.3 mm 5 mps 722 mmHg 92%
    04:00 +21°C° 0.3 mm 5 mps 722 mmHg 92%
    05:00 +21°C° 0.3 mm 5 mps 722 mmHg 92%
    06:00 +21°C° 0.2 mm 5 mps 723 mmHg 91%
    07:00 +20°C° 0.2 mm 5 mps 724 mmHg 91%
    08:00 +20°C° 0.2 mm 5 mps 724 mmHg 90%
    09:00 +20°C° 0.1 mm 5 mps 725 mmHg 87%
    10:00 +21°C° 0.1 mm 4 mps 725 mmHg 84%
    11:00 +21°C° 0.1 mm 4 mps 725 mmHg 81%
    12:00 +23°C° 0 mm 4 mps 725 mmHg 74%
    13:00 +26°C° 0 mm 4 mps 724 mmHg 67%
    14:00 +27°C° 0 mm 4 mps 724 mmHg 61%
    15:00 +27°C° 0 mm 4 mps 723 mmHg 64%
    16:00 +26°C° 0 mm 4 mps 723 mmHg 66%
    17:00 +26°C° 0 mm 3 mps 723 mmHg 69%
    18:00 +25°C° 0 mm 3 mps 723 mmHg 74%
    19:00 +24°C° 0 mm 2 mps 723 mmHg 80%
    20:00 +21°C° 0 mm 2 mps 723 mmHg 85%
    21:00 +22°C° 0 mm 1 mps 724 mmHg 88%
    22:00 +21°C° 0 mm 1 mps 724 mmHg 90%
    23:00 +21°C° 0 mm 1 mps 724 mmHg 93%

    19 December, Wednesday

    Time Temperature Precipitation Wind Pressure Humidity
    00:00 +21°C° 0 mm 1 mps 723 mmHg 93%
    01:00 +21°C° 0 mm 1 mps 723 mmHg 93%
    02:00 +20°C° 0 mm 1 mps 722 mmHg 94%
    03:00 +20°C° 0 mm 1 mps 722 mmHg 93%
    04:00 +20°C° 0 mm 1 mps 722 mmHg 93%
    05:00 +20°C° 0 mm 1 mps 722 mmHg 93%
    06:00 +22°C° 0 mm 1 mps 722 mmHg 86%
    07:00 +23°C° 0 mm 2 mps 722 mmHg 79%
    08:00 +25°C° 0 mm 2 mps 722 mmHg 72%
    09:00 +27°C° 0 mm 3 mps 722 mmHg 66%
    10:00 +29°C° 0 mm 3 mps 722 mmHg 59%
    11:00 +30°C° 0 mm 3 mps 721 mmHg 53%
    12:00 +32°C° 0.1 mm 4 mps 721 mmHg 52%
    13:00 +33°C° 0.1 mm 4 mps 720 mmHg 50%
    14:00 +33°C° 0.1 mm 5 mps 719 mmHg 49%
    15:00 +33°C° 0.5 mm 4 mps 719 mmHg 52%
    16:00 +32°C° 0.5 mm 4 mps 718 mmHg 54%
    17:00 +32°C° 0.5 mm 4 mps 718 mmHg 57%
    18:00 +29°C° 0.9 mm 4 mps 718 mmHg 65%
    19:00 +27°C° 0.9 mm 3 mps 718 mmHg 72%
    20:00 +25°C° 0.9 mm 3 mps 718 mmHg 80%
    21:00 +24°C° 0.3 mm 3 mps 718 mmHg 82%
    22:00 +24°C° 0.3 mm 2 mps 719 mmHg 84%
    23:00 +23°C° 0.3 mm 2 mps 719 mmHg 86%

    20 December, Thursday

    Time Temperature Precipitation Wind Pressure Humidity
    00:00 +23°C° 0.1 mm 2 mps 719 mmHg 86%
    01:00 +23°C° 0.1 mm 2 mps 718 mmHg 86%
    02:00 +23°C° 0.1 mm 1 mps 718 mmHg 87%
    03:00 +23°C° 0.5 mm 2 mps 718 mmHg 85%
    04:00 +23°C° 0.5 mm 2 mps 718 mmHg 84%
    05:00 +23°C° 0.5 mm 2 mps 719 mmHg 82%
    06:00 +25°C° 0 mm 2 mps 719 mmHg 73%
    07:00 +27°C° 0 mm 2 mps 719 mmHg 63%
    08:00 +28°C° 0 mm 2 mps 720 mmHg 53%
    09:00 +30°C° 0 mm 3 mps 720 mmHg 48%
    10:00 +32°C° 0 mm 4 mps 720 mmHg 42%
    11:00 +34°C° 0 mm 5 mps 721 mmHg 37%
    12:00 +34°C° 0 mm 6 mps 720 mmHg 38%
    13:00 +34°C° 0 mm 6 mps 720 mmHg 39%
    14:00 +34°C° 0 mm 6 mps 719 mmHg 40%
    15:00 +33°C° 0 mm 6 mps 719 mmHg 39%
    16:00 +33°C° 0 mm 6 mps 719 mmHg 39%
    17:00 +32°C° 0 mm 6 mps 719 mmHg 39%
    18:00 +29°C° 0 mm 5 mps 719 mmHg 44%
    19:00 +27°C° 0 mm 4 mps 720 mmHg 48%
    20:00 +25°C° 0 mm 3 mps 720 mmHg 53%
    21:00 +24°C° 0 mm 2 mps 721 mmHg 54%
    22:00 +24°C° 0 mm 2 mps 721 mmHg 56%
    23:00 +23°C° 0 mm 2 mps 721 mmHg 57%

    21 December, Friday

    Time Temperature Precipitation Wind Pressure Humidity
    00:00 +21°C° 0 mm 2 mps 721 mmHg 57%
    01:00 +21°C° 0 mm 2 mps 721 mmHg 57%
    02:00 +21°C° 0 mm 2 mps 720 mmHg 57%
    03:00 +20°C° 0 mm 2 mps 720 mmHg 57%
    04:00 +20°C° 0 mm 2 mps 720 mmHg 57%
    05:00 +21°C° 0 mm 1 mps 720 mmHg 56%
    06:00 +23°C° 0 mm 1 mps 721 mmHg 51%
    07:00 +25°C° 0 mm 1 mps 722 mmHg 46%
    08:00 +27°C° 0 mm 1 mps 722 mmHg 40%
    09:00 +29°C° 0 mm 1 mps 722 mmHg 37%
    10:00 +30°C° 0 mm 2 mps 722 mmHg 34%
    11:00 +33°C° 0 mm 3 mps 722 mmHg 31%
    12:00 +33°C° 0 mm 3 mps 721 mmHg 30%
    13:00 +34°C° 0 mm 4 mps 721 mmHg 30%
    14:00 +34°C° 0 mm 4 mps 720 mmHg 29%
    15:00 +34°C° 0 mm 4 mps 720 mmHg 30%
    16:00 +33°C° 0 mm 4 mps 720 mmHg 32%
    17:00 +33°C° 0 mm 4 mps 719 mmHg 34%
    18:00 +30°C° 0 mm 4 mps 720 mmHg 39%
    19:00 +27°C° 0 mm 3 mps 720 mmHg 44%
    20:00 +25°C° 0 mm 2 mps 720 mmHg 50%
    21:00 +25°C° 0 mm 2 mps 721 mmHg 51%
    22:00 +24°C° 0 mm 2 mps 721 mmHg 52%
    23:00 +23°C° 0 mm 1 mps 722 mmHg 54%
    Show more